Showing default

JILIN-01 GAOFEN 3G, 46459

Orbit data source: Space-Track

JILIN-01 GAOFEN 3G, 46459 is a Chinese payload satellite in SSO that was launched on Tue, 15 Sep 2020 UTC via a CHANG ZHENG 11 launch vehicle from the Yellow Sea Launch Area, China (YSLA). Payload-class satellites include a variety of spacecraft equipped with specific instruments for various scientific and technological missions. These include communications satellites like Starlink; space stations such as the ISS; scientific satellites like the Hubble; Earth observation satellites from companies like Planet Labs, Umbra, and HawkEye 360; GPS; miniature CubeSats for education and research; and military/defense satellites.

Loading next visibility...
Identifier
46459, 2020-065F
Orbit
SSO
Country
Flag of CNCN / PRC
Related business
None
Manufacturer
Unknown
Mission
Operational Commercial Imaging
Bus & Motor
Unknown
Mass
Unknown
Launch date (UTC)
2020-09-15 (6 years ago)
Launch vehicle
CHANG ZHENG 11
Launch site
Yellow Sea Launch Area, China (YSLA)
Object type
Payload
Rocket body
Debris
Shape & HBR
Box + 2 Pan, 0.8 m
Radar Cross Section
2.000 m², Medium (>0.1 m² and < 1m²)

Expand to show TLE details & history
Last TLE update: 2 days ago

TLE from 2 days ago
0 JILIN-01 GAOFEN 3G
1 46459U 20065F   26171.39535174  .00090299  00000-0  69350-3 0  9990
2 46459  97.2265 228.2570 0007476  52.7418 307.4526 15.71748026320449
Epoch: 2026-06-20T09:29Z
TLE epoch observation values (Epoch: 2026-06-20T09:29:18.390Z)
Latitude
-0.00005°
Longitude
177.31979°
Altitude
354.008 km
Speed
7.698 km/s
True Right ascension
15h 13m 01s
True Declination
0° 00' 00"
Sunlit
Object was in full shadow at epoch
Visualization orbit readout
Latitude
Unknown
Longitude
Unknown
Altitude
Unknown
Speed
Unknown
Apparent Right ascension
Unknown
Apparent Declination
Unknown
Sunlit
N/A
Visualization observer readout
Local Sidereal Time
21:35:39
Azimuth
Unknown
Elevation
Unknown
Doppler factor
Unknown
Orbital elements
Apogee altitude
355.821 km
Perigee altitude
345.76 km
Semi-major axis
6,728.927 km
Eccentricity
0.00075
Inclination
97.2265°
RAAN
228.257°
Arg. of periapsis
52.7418°
True anomaly
307.38455°
Mean anomaly
307.4526°
Eccentric anomaly
307.41858°
Mean motion
3.9321 °/min
Orbital period
91.55 mins
BSTAR
0.0006935
Loading maneuver chart data...
Computing Atmospheric mass density...
Loading historical data...
Loading historical data...
Loading historical data...
Loading historical data...
Loading historical data...
Loading historical data...
Loading historical data...

Documentation

Showing up to 5 results
|